Change the Weather History Date:

Saturday, May 5, 2012

  Actual Average Record
Temperature  
Mean Temperature 82 °F -  
Max Temperature 95 °F 79 °F 95 °F (2012)
Min Temperature 70 °F 58 °F 40 °F (1957)
Cooling Degree Days 18    
Growing Degree Days 32 (Base 50)    
Moisture  
Dew Point 67 °F    
Average Humidity 68    
Maximum Humidity 94    
Minimum Humidity 32    
Precipitation  
Precipitation 0.02 in - - ()
Sea Level Pressure  
Sea Level Pressure 29.93 in    
Wind  
Wind Speed 7 mph (West)    
Max Wind Speed 18 mph    
Max Gust Speed 22 mph    
Visibility 10 miles    
Events Rain , Thunderstorm    
Averages and records for this station are not official NWS values.
T = Trace of Precipitation, MM = Missing Value Source: NWS Daily Summary

Daily Weather History Graph

Daily Weather History Graph

Search for Another Location

Airport or City:

Trip Planner

Search our weather history database for the weather conditions in past years. The results will help you decide how hot, cold, wet, or windy it might be!

Date:

Astronomy

May. 05, 2012 Rise Set
Actual Time 6:32 AM EDT 8:07 PM EDT
Civil Twilight 6:05 AM EDT 8:33 PM EDT
Nautical Twilight 5:33 AM EDT 9:05 PM EDT
Astronomical Twilight 5:00 AM EDT 9:39 PM EDT
Moon 7:56 PM EDT (5/5) 5:52 AM EDT (5/5)
Length of Visible Light 14h 28m
Length of Day
13h 35m
Full, 100% of the Moon is Illuminated
May 5
Full
May 5
Full
May 12
Last Quarter
May 20
New
May 28
First Quarter

Hourly Weather History & Observations

Time (EDT) Temp. Heat Index Dew Point Humidity Pressure Visibility Wind Dir Wind Speed Gust Speed Precip Events Conditions
12:48 AM 73.4 °F - 68.0 °F 83% 30.00 in 10.0 mi NNW 9.2 mph - N/A Thunderstorm Thunderstorm
12:56 AM 75.0 °F - 68.0 °F 79% 30.01 in 10.0 mi North 9.2 mph - N/A Thunderstorm Thunderstorm
1:02 AM 75.2 °F - 68.0 °F 78% 30.01 in 10.0 mi North 8.1 mph - N/A   Mostly Cloudy
1:14 AM 75.2 °F - 69.8 °F 83% 30.01 in 10.0 mi ENE 6.9 mph - N/A Thunderstorm Thunderstorm
1:29 AM 75.2 °F - 68.0 °F 78% 30.01 in 10.0 mi Calm Calm - N/A Thunderstorm Thunderstorm
1:56 AM 73.0 °F - 68.0 °F 84% 29.99 in 9.0 mi Calm Calm - 0.01 in Rain , Thunderstorm Light Thunderstorms and Rain
2:18 AM 71.6 °F - 69.8 °F 94% 29.97 in 10.0 mi Calm Calm - 0.01 in   Scattered Clouds
2:56 AM 73.0 °F - 70.0 °F 90% 29.95 in 10.0 mi South 3.5 mph - 0.01 in   Clear
3:56 AM 73.0 °F - 68.0 °F 84% 29.95 in 10.0 mi South 3.5 mph - N/A   Scattered Clouds
4:56 AM 72.0 °F - 68.0 °F 87% 29.94 in 10.0 mi SW 4.6 mph - N/A   Clear
5:56 AM 70.0 °F - 68.0 °F 93% 29.95 in 10.0 mi Calm Calm - N/A   Partly Cloudy
6:56 AM 70.0 °F - 66.9 °F 90% 29.96 in 10.0 mi WSW 5.8 mph - N/A   Partly Cloudy
7:56 AM 73.0 °F - 66.9 °F 81% 29.96 in 10.0 mi West 6.9 mph - N/A   Clear
8:56 AM 77.0 °F - 66.9 °F 71% 29.97 in 10.0 mi WNW 8.1 mph - N/A   Clear
9:56 AM 80.1 °F 82.3 °F 66.9 °F 64% 29.98 in 10.0 mi WNW 9.2 mph - N/A   Scattered Clouds
10:56 AM 86.0 °F 88.2 °F 66.0 °F 51% 29.98 in 10.0 mi NW 10.4 mph - N/A   Clear
11:56 AM 89.1 °F 91.3 °F 66.0 °F 46% 29.97 in 10.0 mi NW 8.1 mph - N/A   Clear
12:56 PM 90.0 °F 92.4 °F 66.0 °F 45% 29.96 in 10.0 mi NW 8.1 mph 20.7 mph N/A   Partly Cloudy
1:56 PM 91.9 °F 94.1 °F 64.9 °F 41% 29.93 in 10.0 mi NW 11.5 mph 18.4 mph N/A   Partly Cloudy
2:56 PM 91.9 °F 92.9 °F 63.0 °F 38% 29.90 in 10.0 mi WNW 9.2 mph 17.3 mph N/A   Scattered Clouds
3:56 PM 93.9 °F 94.0 °F 61.0 °F 33% 29.87 in 10.0 mi WSW 18.4 mph 21.9 mph N/A   Partly Cloudy
4:56 PM 95.0 °F 95.2 °F 61.0 °F 32% 29.85 in 10.0 mi West 12.7 mph 18.4 mph N/A   Partly Cloudy
5:56 PM 90.0 °F 94.5 °F 69.1 °F 50% 29.83 in 10.0 mi Variable 6.9 mph - N/A   Clear
6:56 PM 86.0 °F 88.8 °F 66.9 °F 53% 29.82 in 10.0 mi SSW 5.8 mph - N/A   Partly Cloudy
7:56 PM 82.0 °F 85.5 °F 69.1 °F 65% 29.84 in 10.0 mi Variable 4.6 mph - N/A   Clear
8:56 PM 80.1 °F 83.2 °F 70.0 °F 71% 29.85 in 10.0 mi Variable 3.5 mph - N/A   Clear
9:56 PM 79.0 °F - 70.0 °F 74% 29.85 in 10.0 mi SW 8.1 mph - N/A   Clear
10:56 PM 78.1 °F - 70.0 °F 76% 29.85 in 10.0 mi SW 8.1 mph - N/A   Clear
11:56 PM 78.1 °F - 66.9 °F 68% 29.86 in 10.0 mi SW 8.1 mph - N/A   Clear